Location: Glens Falls
(43.3090°N, 73.6440°W)
Time: 03:06:11
(UTC-04:00)

Daily predictions for brighter satellites

Satellite Brightness Start Highest point End
(mag) Time Altitude Azimuth Time Altitude Azimuth Time Altitude Azimuth
H-2A R/B 4.3 00:12:14 25° N 00:12:14 25° N 00:14:09 10° N
Lacrosse 5 3.6 00:10:58 10° NW 00:13:24 28° NW 00:13:24 28° NW
CZ-2C R/B 3.9 00:12:53 10° N 00:16:47 37° NW 00:16:47 37° NW
CZ-4C R/B 3.3 00:26:51 41° NNW 00:26:51 41° NNW 00:31:57 10° NNE
ATLAS 5 CENTAUR R/B 3.3 00:27:26 10° NW 00:31:12 42° NW 00:31:12 42° NW
ADEOS Rocket 3.5 01:08:07 10° N 01:14:09 63° NNW 01:14:09 63° NNW
Cosmos 1943 Rocket 4.3 01:12:11 10° NW 01:13:38 16° WNW 01:13:38 16° WNW
Mayak 1.5 01:13:32 10° N 01:14:37 16° NNW 01:14:37 16° NNW
COSMOS 2406 4.4 01:31:26 38° NE 01:31:26 38° NE 01:34:58 10° NNE
CZ-2D R/B 4.2 01:45:31 10° NE 01:48:41 17° E 01:48:41 17° E
SL-16 R/B 4.0 01:49:33 26° E 01:51:33 31° ENE 01:56:57 10° N
Cosmos 2082 Rocket 4.2 01:53:11 19° E 01:53:11 19° E 01:56:14 10° NE
Lacrosse 4 Rocket 4.1 01:53:08 10° N 01:56:05 17° NE 01:57:21 15° ENE
Cosmos 1464 Rocket 4.3 02:02:23 63° NE 02:02:23 63° NE 02:07:49 10° NNE
Cosmos 1656 4.2 02:16:05 10° NNW 02:21:42 54° ENE 02:21:48 54° ENE
Nadezhda 4 Rocket 4.1 02:20:16 10° N 02:26:23 66° E 02:26:27 66° E
Cosmos 2369 4.1 02:20:59 10° NNW 02:26:19 61° NE 02:26:19 61° NE
Gbstr 26 Del rocket 4.2 02:26:22 83° SSW 02:26:39 86° SE 02:33:48 10° ENE
NPP 4.1 02:26:12 10° NNE 02:30:55 56° ENE 02:30:55 56° ENE
Cosmos 1833 Rocket 3.4 02:32:35 44° E 02:32:35 44° E 02:37:30 10° NE
Resurs 1-4 Rocket 3.0 02:27:22 10° NNE 02:32:02 40° E 02:32:02 40° E
Lacrosse 5 rocket 3.3 02:45:56 25° ENE 02:45:56 25° ENE 02:47:56 10° ENE
Cosmos 909 Rocket 3.9 02:46:32 10° NNW 02:52:50 90° N 02:53:59 63° SSE
H-2A R/B 3.6 02:49:58 10° NNE 02:52:52 43° NNE 02:52:52 43° NNE
Cosmos 332 Rocket 4.2 02:55:46 59° NNE 02:55:46 59° NNE 02:59:41 10° NNE
Meteor 1-23 Rocket 4.2 02:54:57 85° E 02:54:57 85° E 03:00:40 10° N
Cosmos 371 Rocket 3.6 02:57:27 63° NNE 02:57:27 63° NNE 03:01:33 10° NNE
Meteor 2-4 Rocket 4.1 03:01:30 48° NW 03:01:30 48° NW 03:06:02 10° N
Exosat Rocket 4.1 02:57:35 10° NNW 03:03:28 87° WSW 03:06:36 39° SSE
CBERS-1 4.1 03:04:37 10° N 03:09:22 67° NW 03:09:22 67° NW
Cosmos 1025 Rocket 3.4 03:16:11 62° NE 03:16:11 62° NE 03:19:50 10° NNE
COSMOS 2487 4.1 03:18:48 31° ENE 03:18:48 31° ENE 03:21:12 10° NE
Cosmos 2278 4.0 03:14:10 10° NNW 03:18:44 50° WNW 03:18:44 50° WNW
Cosmos 2195 Rocket 4.4 03:14:30 10° N 03:20:43 86° E 03:22:39 47° SSE
USA 215 4.3 03:18:50 10° ENE 03:24:42 34° SE 03:26:55 27° SSE
IRS P6 4.4 03:20:24 10° N 03:25:38 72° WNW 03:26:00 69° WSW
Cosmos 1980 Rocket 2.4 03:21:41 10° NNW 03:27:18 69° ENE 03:32:53 10° SSE
Cosmos 1570 Rocket 4.1 03:27:42 57° SSE 03:28:37 69° ESE 03:33:54 10° NNE
CZ-2D R/B 2.1 03:24:11 10° N 03:29:32 64° WNW 03:30:01 61° W
Cosmos 1697 Rocket 2.6 03:25:03 10° NNW 03:30:40 67° WSW 03:31:11 63° SW
Cosmos 1607 4.1 03:29:40 50° WSW 03:31:09 64° NW 03:37:37 10° NNE
Cosmos 2142 Rocket 4.4 03:29:46 49° S 03:31:37 89° ESE 03:37:48 10° N
Cosmos 1092 Rocket 4.0 03:25:45 10° NNW 03:31:50 58° W 03:32:43 53° SW
UNKNOWN OBJECT B 3.5 03:30:50 10° NNE 03:34:36 46° E 03:34:51 45° ESE
SL-16 R/B 2.7 03:34:37 47° WSW 03:34:56 47° W 03:40:58 10° NNW
Lacrosse 4 Rocket 2.5 03:30:49 10° NW 03:33:35 37° NW 03:33:35 37° NW
Cosmos 2082 Rocket 2.2 03:35:02 56° WSW 03:35:53 63° WNW 03:41:30 10° NNE
Cosmos 304 Rocket 3.8 03:35:16 60° SSE 03:35:59 71° ESE 03:40:48 10° NNE
SL-16 R/B 4.0 03:32:10 10° N 03:37:11 31° NE 03:42:10 10° ESE
Cosmos 1867 3.5 03:32:03 10° NW 03:37:28 61° WSW 03:37:36 61° SW
Spot 4 Rocket 3.9 03:33:36 10° N 03:38:47 78° WNW 03:39:40 61° SW
Cosmos 1340 Rocket 4.3 03:40:35 26° NW 03:40:35 26° NW 03:42:58 10° N
MOZ.5/SAFIR/RUBIN 5/SL-8 3.9 03:40:15 57° W 03:40:15 57° W 03:44:38 10° NNW
ARIANE 5 R/B 2.5 03:37:19 10° N 03:42:34 75° WNW 03:43:38 56° SW
Iridium 4 Rocket 3.8 03:47:03 38° WNW 03:47:03 38° WNW 03:50:36 10° NNW
Cosmos 468 Rocket 4.2 03:47:43 40° S 03:49:36 71° ESE 03:54:54 10° NNE
BREEZE-M R/B 3.7 03:51:25 35° SE 03:51:34 35° SE 03:56:10 10° ENE
BREEZE-M DEB (TANK) 4.1 03:33:45 10° WNW 03:53:47 84° NNE 03:58:14 10° ESE
Cosmos 990 Rocket 4.5 03:48:56 10° NNW 03:54:03 60° ENE 03:59:08 10° SSE
Cosmos 2322 Rocket 3.6 03:49:04 10° NNW 03:54:20 38° ENE 03:59:33 10° SE
Cosmos 1428 Rocket 4.3 03:48:16 10° N 03:54:29 80° W 03:58:27 23° S
USA 238 DEB 4.5 03:56:25 20° S 04:00:49 45° ESE 04:07:22 10° NE
USA 238 4.5 03:56:30 20° S 04:00:55 45° ESE 04:07:28 10° NE
ADEOS II 2.6 03:55:54 10° NNE 04:01:06 58° E 04:04:45 19° S
Cosmos 1726 Rocket 3.4 03:57:43 10° N 04:02:04 84° W 04:03:44 37° S
Cosmos 1842 3.9 04:01:07 28° SSE 04:02:55 52° E 04:06:47 10° NNE
Okean 1-7 Rocket 3.7 04:02:59 50° WSW 04:03:40 56° W 04:08:07 10° N
Cosmos 724 4.5 04:01:35 30° S 04:04:26 64° ESE 04:10:10 10° NE
IRS-1D 4.2 04:00:01 10° N 04:04:42 37° WNW 04:05:48 33° W
Cosmos 1356 Rocket 3.4 04:05:50 54° WSW 04:06:11 56° WNW 04:10:11 10° N
CZ-2D R/B 3.3 04:03:19 10° N 04:07:21 70° WNW 04:08:19 50° SW
ADEOS 3.5 04:02:20 10° N 04:07:34 77° WNW 04:09:55 33° SSW
Cosmos 1544 3.6 04:07:39 10° NNW 04:10:42 41° WNW 04:10:42 41° WNW
Resurs 1-4 Rocket 3.2 04:07:36 10° N 04:11:58 27° WNW 04:13:07 25° W
Cosmos 1833 Rocket 3.8 04:14:17 24° W 04:16:13 29° NW 04:21:09 10° N
Cosmos 2058 Rocket 2.9 04:13:30 10° N 04:17:56 81° W 04:21:28 16° S
Helios 1A Rocket 3.5 04:14:11 10° N 04:18:05 40° WNW 04:18:53 36° W
Cosmos 1805 3.2 04:14:51 10° N 04:18:46 87° E 04:21:47 16° S
Cosmos 1766 3.3 04:19:00 10° NNW 04:22:48 54° W 04:24:03 36° SSW
Cosmos 44 3.8 04:17:56 10° NNW 04:23:08 70° NE 04:28:30 10° SE
Lacrosse 5 rocket 2.5 04:21:36 25° WNW 04:23:16 33° NNW 04:26:59 10° NNE
Cosmos 841 Rocket 3.7 04:25:09 17° S 04:29:11 69° ESE 04:34:22 10° NNE
Cosmos 1606 Rocket 4.2 04:25:25 10° NNW 04:29:18 33° W 04:30:10 30° WSW
Cosmos 1758 3.7 04:27:15 10° N 04:31:13 64° E 04:35:09 10° SSE
deb Kosmos-1763 4.2 04:31:15 23° S 04:33:27 75° ESE 04:37:14 10° NNE
Cosmos 2228 3.2 04:30:46 10° NNW 04:34:53 47° W 04:37:29 20° SSW
Cosmos 2279 Rocket 4.5 04:32:48 23° SW 04:36:15 42° WNW 04:42:11 10° N
Cosmos 1626 Rocket 3.8 04:32:24 10° S 04:36:40 67° E 04:40:58 10° NNE
Cosmos 1892 Rocket 4.2 04:40:00 25° WSW 04:41:53 37° WNW 04:46:00 10° N
Cosmos 44 Rocket 3.7 04:38:00 10° NNW 04:43:08 71° NE 04:48:19 10° SE
SJ 16-02 2.5 04:41:24 10° N 04:45:40 46° ENE 04:49:55 10° SE
CZ-4B R/B 3.5 04:45:40 10° NNE 04:49:54 58° E 04:53:54 10° S
Meteor 1-21 4.4 04:47:14 15° SSW 04:51:54 54° WNW 04:57:26 10° N
Cosmos 540 Rocket 3.8 04:47:55 10° S 04:52:58 64° ESE 04:58:05 10° NNE
ATLAS 3B R/B 2.8 04:47:01 13° SSW 04:53:35 84° ESE 05:00:32 10° NE
NOSS 3-2 (A) 3.9 04:50:22 10° SSW 04:56:07 60° ESE 05:02:31 10° NE
Cosmos 1763 Rocket 3.9 04:53:31 17° SW 04:57:25 49° WNW 05:02:35 10° N
Timation 2 Rocket 3.9 04:52:46 15° SW 04:57:52 66° WNW 05:03:50 10° NNE
Cosmos 1733 3.2 05:00:16 10° NNW 05:04:06 62° W 05:07:55 10° S
USA 215 3.4 05:01:29 10° NE 05:08:01 73° NW 05:14:17 11° WSW
MOS 1-B 4.4 05:02:54 10° NNE 05:08:46 85° WNW 05:14:34 10° SSW
Cosmos 2360 Rocket 2.7 05:03:13 10° NNW 05:08:49 64° ENE 05:14:23 10° SE
Cosmos 1980 Rocket 3.6 05:07:08 10° WNW 05:10:39 17° W 05:14:11 10° SW
Cosmos 1238 Rocket 4.5 05:05:44 10° S 05:12:04 70° E 05:18:45 10° NNE
Okean O Rocket 2.2 05:07:50 10° NNE 05:12:10 58° E 05:16:26 10° S
USA 161 2.2 05:09:38 10° SSE 05:12:38 60° ENE 05:15:37 10° N
ATLAS CENTAUR R/B 3.1 05:10:40 10° NNW 05:14:48 41° NE 05:19:10 10° ESE
Cosmos 1125 Rocket 3.7 05:11:21 10° NNW 05:16:42 83° ENE 05:22:00 10° SSE
CENTAUR R/B 4.4 05:11:58 10° SSE 05:16:49 27° ESE 05:22:10 10° NE
Cosmos 1937 Rocket 4.5 05:12:51 10° NW 05:17:00 25° W 05:21:07 10° SSW
Cosmos 1470 2.9 05:14:56 10° NNW 05:18:51 55° W 05:22:44 10° S
Cosmos 2266 Rocket 4.4 05:14:06 10° NNW 05:19:39 38° W 05:25:13 10° SSW
Cosmos 2082 Rocket 4.2 05:18:54 10° WNW 05:21:11 12° NW 05:23:28 10° NNW
SL-16 R/B 2.5 05:16:04 10° NW 05:21:25 43° WSW 05:26:43 10° S
Cosmos 1825 Rocket 3.8 05:22:11 10° S 05:26:29 73° E 05:30:48 10° NNE
Cosmos 2292 Rocket 4.2 05:23:38 10° N 05:27:31 49° ENE 05:30:38 10° SSE
S3M 4.4 05:27:07 10° S 05:33:12 68° E 05:39:16 10° NNE
DNEPR-1 R/B 3.6 05:30:20 10° SW 05:34:30 68° NW 05:39:08 10° NNE
Meteor 1-16 Rocket 4.3 05:29:33 10° N 05:35:18 89° WSW 05:40:48 10° S
Cosmos 2219 Rocket 4.2 05:32:07 10° N 05:37:11 33° NE 05:42:12 10° ESE
